Regional Weather Roundup
Issued by NWS Mobile, AL

Home | Current Version | Previous Version | Text Only | Print | Product List | Glossary On
Versions: 1 2 3 4 5 6 7 8 9 10 11 12 13 14 15 16 17 18 19 20 21 22 23 24 25 26 27
000
ASUS44 KMOB 010212
RWRMOB
REGIONAL WEATHER ROUNDUP
NATIONAL WEATHER SERVICE MOBILE AL
900 PM CDT TUE MAY 31 2016

NOTE: "FAIR" INDICATES FEW OR NO CLOUDS BELOW 12,000 FEET WITH NO
      SIGNIFICANT WEATHER AND/OR OBSTRUCTIONS TO VISIBILITY.

  * THESE STATIONS ARE PART OF THE UNIVERSITY OF SOUTH ALABAMA
    MESONET AND ARE NOT UNDER NWS OR FAA QUALITY CONTROL.

ALZ061>064-010300-
COASTAL ALABAMA

CITY           SKY/WX    TMP DP  RH WIND       PRES   REMARKS
MOBILE REG APT PTCLDY    73  70  90 CALM      29.94R
BROOKLEY FIELD CLEAR     76  70  82 CALM      29.94R
USA CAMPUS*    NOT AVBL
DOG RIVER*     NOT AVBL


CITY           SKY/WX    TMP DP  RH WIND       PRES   REMARKS
MOUNT VERNON*  NOT AVBL
SARALAND*      NOT AVBL
BAY MINETTE*   NOT AVBL
LOXLEY*        NOT AVBL
ROBERTSDALE*   NOT AVBL
FAIRHOPE*      NOT AVBL
ELBERTA*       NOT AVBL
FOLEY*         NOT AVBL
GRAND BAY*     NOT AVBL
DAUPHIN ISLND* NOT AVBL
BON SCOUR NWR* NOT AVBL
GULF SHORES    CLEAR     73  71  95 CALM      29.92R

$$

ALZ051>060-010300-
INTERIOR SOUTHWEST AND SOUTH CENTRAL ALABAMA

CITY           SKY/WX    TMP DP  RH WIND       PRES   REMARKS
GREENVILLE     PTCLDY    77  66  68 CALM      29.92R
EVERGREEN      PTCLDY    72  68  87 W3        29.93R
CASTLEBERRY*   NOT AVBL
ATMORE*        NOT AVBL
DIXIE*         NOT AVBL
ANDALUSIA/OPP  CLOUDY    76  67  73 CALM      29.93R
ANDALUSIA*     NOT AVBL
FLORALA APT    NOT AVBL
FLORALA*       NOT AVBL

$$

FLZ001>006-010300-
WESTERN FLORIDA PANHANDLE

CITY           SKY/WX    TMP DP  RH WIND       PRES   REMARKS
PENSACOLA      PTCLDY    76  68  76 CALM      29.92R
NAS PENSACOLA  NOT AVBL
MILTON         CLOUDY    70  70 100 CALM      29.93R
WHTNG S FIELD  MOCLDY    74  71  91 NE3       29.93R


CITY           SKY/WX    TMP DP  RH WIND       PRES   REMARKS
WALNUT HILL*   NOT AVBL
JAY*           NOT AVBL
DUKE FIELD     MOCLDY    71  70  95 NW2       29.92R
CRESTVIEW      CLOUDY    71  69  93 CALM      29.94R FOG
VALPARAISO     MOCLDY    74  68  80 N3        29.92R
DESTIN         PTCLDY    83  76  79 SW5       29.91R

$$

MSZ076-079-010300-
INTERIOR SOUTHEAST MISSISSIPPI

CITY           SKY/WX    TMP DP  RH WIND       PRES   REMARKS
LEAKESVILLE*   NOT AVBL
AGRICOLA*      NOT AVBL

$$

MARINE OBSERVATIONS

STATION/POSITION TIME  TEMP    WIND        PRES    WAVE
                       AIR SEA DIR/SP/G            HT/PER
                 (UTC) (F)     (DEG/KT/KT) (MB)    (FT/S)
PASCAGOULA       0100                      1012.4R
PETIT BOIS ISLND 0100                      1013.3R
GRAND BAY        0000   83     210/  6     1014.0R
KATRINA CUT      0000   82     210/  6     1012.9R
CEDAR POINT      0000   82     230/ 10     1011.9S
E DAUPHIN ISLAND 0100   82     220/  5/  7 1012.6R
MIDDLE BAY LIGHT 0000   82     130/  5     1012.5S
USCG MOBILE BAY  0100      83              1013.3R
STATE DOCKS      0100      82              1012.7R
MEAHER PARK      0100   78     170/  4     1011.9S
WEEKS BAY        0000   82                   N/A
FORT MORGAN      0100                      1012.4R
12 S ORANGE BCH  0150   82 83              1012.4R   1/ 3
PENSACOLA BAY    0100      81              1012.5S
64 S DAUPHIN ISL 0100   80 82  200/  4/  6 1013.0R

$$

SELECTED LOCATIONS ACROSS THE REGION

CITY           SKY/WX    TMP DP  RH WIND       PRES   REMARKS
NEW ORLEANS    CLOUDY    80  68  66 SW8       29.92R
GULFPORT       PTCLDY    81  70  69 CALM      29.92R
PASCAGOULA AP  CLEAR     75  70  84 W3        29.93R
PASCAGOULA*    NOT AVBL
HATTIESBURG    CLOUDY    82  67  60 E7        29.93R
LAUREL         CLOUDY    75  64  69 SE12G18   29.94R
MERIDIAN       CLOUDY    75  68  78 SE6       29.94R
JACKSON        CLOUDY    75  66  73 SE3       29.93R
MONTGOMERY     PTCLDY    78  66  66 W6        29.91S
TROY           PTCLDY    75  70  84 W3        29.92S
KINSTON*       NOT AVBL
GENEVA*        NOT AVBL
ASHFORD*       NOT AVBL
DOTHAN         PTCLDY    76  67  73 SW8       29.93S
PANAMA CITY    MOCLDY    76  73  91 CALM      29.90S

$$





USA.gov is the U.S. government's official web portal to all federal, state and local government web resources and services.